Location: Newark
(6.0333°S, 36.1333°E)
Time: 14:26:02
(UTC+00:00)

N. Korean satellite - Visible Passes

Search period start: 17 November 2019 00:00
Search period end: 27 November 2019 00:00
Orbit: 456 x 506 km, 97.2° (Epoch: 16 November)

Date Brightness Start Highest point End Pass type
(mag) Time Alt. Az. Time Alt. Az. Time Alt. Az.
17 Nov 9.3 02:32:23 10° NE 02:35:22 25° ESE 02:38:21 10° SSE visible
17 Nov 9.8 15:50:12 10° SW 15:52:38 18° WSW 15:55:04 10° WNW visible
21 Nov 9.8 02:24:40 10° NE 02:27:13 19° ESE 02:29:44 10° SSE visible
24 Nov 8.5 02:41:05 10° NE 02:44:19 35° ESE 02:47:33 10° SSE visible
24 Nov 10.1 15:59:52 10° SW 16:01:34 13° WSW 16:03:16 10° WNW visible
25 Nov 10.0 02:17:10 10° ENE 02:19:00 14° ESE 02:20:50 10° SE visible
